RH
9 12 21 26 31 32 23 23 21 18 21 26 36 31 30 51 71 64 64 68 60 57 78 94 100 99 93 98 95 82 84 88 85 75 88 87 99 96 96 98 90 90 36
9 9 9 10 22 16 19 15 18 23 25 35 49 45 44 49 48 42 42 36 34 39 53 66 79 92 96 96 97 93 94 96 93 87 78 92 98 95 99 98 96 99 84
8 14 14 14 8 15 13 14 14 18 21 18 22 29 30 30 31 26 25 40 28 24 32 40 54 56 62 66 79 78 77 74 84 90 80 81 90 96 90 87 84 85 98
8 9 15 12 19 10 8 11 14 15 16 20 23 21 22 22 22 23 50 64 55 55 28 23 31 38 49 50 42 39 47 66 74 77 77 75 76 77 88 93 94 97 98
13 10 9 12 10 15 20 19 17 13 16 24 39 40 43 40 43 40 53 45 53 58 60 28 24 25 28 33 41 48 47 48 49 35 34 42 58 64 71 76 78 85 95
31 14 10 8 9 9 10 10 10 9 9 10 13 17 21 25 18 14 19 19 48 47 50 47 51 52 47 33 28 32 43 46 43 39 38 35 30 32 53 61 66 72 80
49 27 15 11 10 8 8 9 10 11 10 10 12 18 19 18 15 13 12 14 22 40 48 50 48 51 63 70 78 34 23 34 42 40 36 35 36 34 40 46 56 66 72
62 63 80 23 10 11 10 10 9 10 11 12 10 12 15 12 11 12 16 24 36 53 57 62 67 66 53 42 72 92 37 22 27 29 30 30 35 37 39 38 39 46 50
71 43 78 68 18 14 14 11 10 11 10 14 11 9 10 11 9 13 14 19 33 47 48 44 47 59 50 56 42 37 66 46 24 23 23 25 28 27 31 33 32 32 37
74 66 54 77 60 20 15 20 13 11 13 12 13 10 8 7 7 12 15 16 41 37 21 37 67 61 50 70 43 31 42 29 31 42 44 30 30 30 31 34 31 30 29
78 59 35 82 80 60 37 25 28 25 15 20 17 14 10 7 8 13 10 13 33 38 35 43 52 58 63 42 40 42 36 42 38 29 20 29 46 56 70 71 58 39 30
95 66 22 48 40 61 66 50 48 40 39 32 16 10 11 10 14 21 25 21 19 18 17 29 38 37 32 42 23 24 22 23 17 14 16 20 31 25 25 33 61 83 55
86 66 42 22 30 34 79 72 73 73 59 66 31 22 15 13 23 34 29 30 30 23 15 26 22 17 15 16 13 13 13 13 12 13 14 23 25 22 27 25 30 48 62
82 61 56 48 32 66 80 75 67 89 94 86 64 59 50 40 34 26 37 38 30 21 14 12 13 13 13 13 13 14 19 22 21 19 19 21 23 26 26 26 21 30 57
61 41 61 63 35 33 74 83 99 92 96 96 79 68 60 50 20 20 13 10 10 11 11 11 11 12 15 18 20 26 30 33 38 43 42 35 32 28 29 27 23 23 35
38 41 51 51 38 30 62 82 81 94 95 94 72 35 38 31 19 15 13 14 13 14 14 13 12 11 11 15 22 30 31 36 34 35 38 42 44 40 40 45 46 45 62
43 38 55 56 68 64 78 78 73 87 78 97 92 73 45 28 26 23 22 22 24 22 18 14 12 11 10 11 13 15 16 19 23 26 26 31 38 45 48 40 60 74 81
48 58 70 82 71 78 83 88 87 91 80 54 72 71 60 41 42 41 36 31 23 20 18 14 12 12 14 16 16 15 16 18 19 20 22 29 40 45 52 58 69 63 69
41 76 86 81 85 96 91 98 94 88 88 70 90 80 68 62 48 32 28 30 30 22 15 14 16 18 20 18 17 15 16 23 31 34 33 33 34 37 38 35 36 56 49
39 48 60 73 84 83 84 96 87 76 81 70 90 91 74 41 41 41 39 20 20 17 17 19 24 23 20 18 15 18 33 44 42 38 35 32 32 38 40 42 41 39 40
43 45 52 70 70 70 78 71 76 83 83 76 78 76 60 58 61 31 18 23 27 22 21 23 23 24 26 27 28 32 33 29 26 25 25 24 23 21 21 22 25 26 24
48 57 60 60 59 54 61 73 68 67 73 82 86 81 65 59 35 29 32 31 26 21 26 26 23 29 32 29 29 30 30 28 24 21 20 18 18 17 17 16 16 16 15
50 50 52 55 54 51 56 54 58 60 66 80 73 69 70 44 39 38 30 29 28 26 18 17 18 22 22 20 17 16 16 17 19 20 21 21 21 20 20 19 18 17 17
44 45 50 51 48 46 44 43 48 69 81 77 80 88 56 39 44 35 33 29 22 20 25 29 24 19 17 18 19 20 22 23 23 22 20 18 16 15 14 12 12 12 14
54 44 39 37 42 40 37 46 60 62 87 88 82 38 49 41 34 32 27 25 28 31 23 18 26 31 33 33 33 32 32 36 40 42 42 40 39 40 39 37 37 37 36
61 53 49 47 57 63 65 62 70 98 87 55 48 42 35 34 29 23 25 26 20 24 40 44 46 45 44 45 46 46 46 43 36 27 21 16 12 10 9 8 8 9 9
Wind_Speed
7 4 2 2 2 2 3 4 6 7 9 11 12 12 11 10 6 6 11 10 8 9 12 10 11 18 21 22 19 18 15 14 14 14 16 16 16 16 15 12 18 17 18
7 5 4 4 5 3 4 4 4 2 3 4 5 5 6 6 5 5 6 8 10 9 8 8 8 9 12 13 12 16 17 15 14 15 15 14 13 15 13 17 18 20 16
7 4 3 1 3 6 7 7 6 4 3 3 3 3 3 2 1 2 5 8 10 10 10 10 10 10 11 12 14 16 16 17 18 18 19 18 17 17 15 14 16 22 20
9 8 6 3 1 4 8 7 5 5 5 4 3 4 4 3 3 4 4 6 9 12 13 11 12 12 13 14 14 15 15 16 17 18 20 21 22 21 20 21 21 23 21
12 11 11 10 7 5 6 6 5 5 5 5 5 4 4 5 6 8 8 11 13 13 10 12 13 15 16 17 18 19 18 18 17 18 18 18 19 22 21 24 23 24 23
14 16 15 15 14 12 11 9 9 9 9 9 8 9 8 7 8 12 14 14 10 9 7 8 12 14 17 21 23 22 22 21 21 21 20 19 19 18 19 23 24 25 24
19 17 19 21 18 16 16 15 14 13 12 12 11 11 12 10 11 13 14 16 14 14 11 11 12 13 15 15 19 27 26 23 23 22 23 23 21 20 20 21 22 25 26
21 18 21 24 24 22 21 19 19 18 15 14 14 14 15 14 14 13 14 15 14 12 11 11 13 14 15 17 17 17 23 26 25 24 25 25 26 24 23 22 24 25 25
31 24 26 28 29 27 25 25 22 21 21 19 18 18 18 19 18 16 16 16 15 14 13 13 14 14 17 21 16 16 15 19 24 29 29 29 30 30 29 28 27 27 28
36 30 32 36 33 33 31 28 29 26 24 24 22 23 22 21 21 19 18 17 17 15 14 15 16 17 17 16 19 16 16 18 20 20 28 32 33 34 35 35 33 31 30
45 41 35 36 37 37 36 35 31 31 29 29 29 27 26 28 25 21 21 20 20 19 18 17 17 18 16 20 19 19 19 20 21 21 23 27 29 30 32 38 39 37 35
40 37 37 36 39 45 43 43 35 36 33 32 32 33 32 30 27 26 25 25 25 23 23 21 21 21 20 20 22 23 22 23 25 26 26 28 27 30 30 31 33 39 40
47 46 48 46 45 42 50 44 40 39 38 31 31 34 36 34 31 27 29 27 26 26 26 26 24 24 25 25 25 26 27 27 27 27 29 29 31 31 30 31 33 36 38
54 51 51 48 41 37 45 49 51 45 41 35 34 32 31 34 30 28 28 27 28 29 27 27 28 28 30 31 29 30 30 32 33 34 34 34 34 35 34 34 34 35 35
60 54 55 47 44 43 44 46 65 63 22 37 31 29 29 29 29 28 30 31 33 32 32 33 33 33 34 35 36 36 37 37 36 36 36 37 36 38 39 40 39 35 37
59 56 54 49 49 46 45 49 53 64 31 16 18 27 30 27 27 30 31 31 32 34 34 36 38 39 39 40 41 41 41 41 42 42 42 42 42 38 39 43 42 39 37
60 58 54 52 49 49 46 47 47 46 25 30 40 35 31 29 30 30 32 34 35 36 37 41 44 44 43 42 43 42 42 42 42 41 42 42 42 39 38 44 45 41 36
56 55 54 53 53 56 51 40 14 13 22 32 30 23 30 31 33 35 37 40 42 41 40 43 41 41 43 44 43 41 42 42 42 44 44 42 41 39 40 43 44 46 45
57 53 53 59 62 45 55 43 15 21 23 25 15 21 28 37 39 40 37 36 39 39 39 42 41 42 43 45 46 44 43 41 40 40 40 39 38 38 39 41 43 43 42
59 54 54 54 59 52 50 27 16 25 26 29 19 25 31 32 37 36 36 37 37 38 40 40 42 43 44 45 44 42 39 37 37 37 37 38 38 38 38 37 39 41 41
57 56 54 56 50 43 33 28 26 29 24 27 26 27 30 33 32 34 37 39 38 37 38 42 43 43 42 41 40 38 37 35 36 37 37 38 38 39 39 40 41 42 43
59 53 51 48 46 45 35 30 38 37 39 39 35 34 36 33 34 37 38 36 37 37 40 43 40 38 37 37 38 37 39 40 40 39 40 39 41 42 42 45 45 46 47
60 58 54 51 49 47 45 45 45 47 47 46 41 42 36 36 36 37 37 37 39 39 39 40 38 39 39 40 40 42 43 43 42 42 44 44 45 47 46 47 49 49 48
60 59 55 53 54 53 51 51 51 49 44 40 40 35 37 37 38 38 38 39 38 38 39 40 42 43 42 42 43 44 47 45 45 45 46 46 47 49 50 50 52 54 52
50 53 55 54 52 52 51 51 46 44 38 40 35 35 36 37 37 37 37 38 38 40 40 42 41 41 42 44 44 45 45 45 46 45 47 50 50 51 52 54 55 56 57
39 43 45 43 42 44 46 46 44 38 31 31 33 34 35 35 36 38 39 40 41 39 39 41 42 42 42 42 42 44 46 48 51 52 54 55 55 57 58 60 61 62 62
Wind_Direction
306 301 300 290 277 253 234 213 217 232 246 256 258 261 257 243 256 270 256 268 286 306 326 304 256 246 244 242 240 249 256 262 269 268 247 246 265 271 271 247 232 224 222
293 289 294 301 259 243 226 186 176 210 235 257 243 216 217 234 248 285 296 305 311 302 303 298 303 296 263 246 252 258 259 259 258 262 260 256 259 261 261 262 241 247 231
270 278 267 269 277 241 211 199 200 190 179 160 171 175 180 165 95 6 321 311 312 311 304 290 289 286 285 283 272 269 266 262 261 261 264 265 261 261 261 263 250 249 255
254 262 250 245 226 227 229 217 202 206 215 214 214 208 220 232 235 258 303 314 333 321 277 286 291 288 284 280 279 279 278 276 271 270 270 272 271 266 259 259 260 269 266
249 251 255 254 251 246 240 255 253 255 246 231 213 236 257 283 269 267 286 309 306 314 282 272 281 286 284 283 281 279 279 279 281 283 283 284 284 283 275 265 262 261 259
244 254 253 254 256 258 261 263 266 267 268 260 254 261 265 277 295 300 297 300 294 299 313 299 292 287 284 279 275 275 278 279 278 278 280 282 280 282 283 278 268 263 262
236 246 259 256 251 251 251 259 261 259 258 256 258 259 264 270 281 289 290 289 285 282 288 290 298 302 306 303 293 268 264 269 276 280 282 281 283 284 282 278 276 273 268
262 259 257 262 256 249 248 249 257 260 258 259 259 262 267 274 280 285 286 287 285 283 287 292 296 300 312 311 316 298 266 262 268 275 280 284 285 284 280 278 279 278 276
256 265 258 257 254 251 252 251 250 255 259 259 264 266 269 274 277 279 280 283 280 290 294 295 299 303 315 309 321 326 299 273 267 275 278 284 287 288 286 284 280 278 282
253 262 260 254 252 253 251 252 252 249 256 263 263 266 272 274 273 275 274 275 277 280 288 288 298 299 316 301 315 317 312 302 293 283 281 276 277 280 282 283 282 280 276
243 250 253 249 246 245 248 248 251 253 250 257 261 261 264 270 274 274 274 274 274 273 274 273 281 293 298 301 309 308 310 308 305 299 297 290 289 288 284 281 277 278 278
246 253 252 250 252 251 243 248 246 251 252 254 256 259 263 265 267 271 269 269 270 275 279 283 285 291 293 295 301 303 303 304 305 307 303 301 294 295 297 297 288 280 275
244 250 254 254 259 265 239 238 245 250 251 250 251 252 256 262 265 267 271 275 279 280 284 286 289 291 292 295 296 295 296 296 296 297 297 297 295 295 293 292 294 296 282
242 245 253 256 255 251 249 249 248 243 236 234 241 249 254 260 265 266 272 273 276 279 282 283 287 290 293 293 290 288 287 288 290 293 295 296 297 295 291 289 289 286 281
242 243 246 251 257 264 256 275 253 249 196 216 227 245 259 265 262 269 275 278 282 286 290 291 291 290 288 286 285 287 289 292 292 290 291 291 295 297 295 293 289 285 283
237 240 243 248 252 256 263 268 271 246 274 255 247 253 260 264 268 272 275 278 281 285 291 292 291 289 286 285 287 287 288 291 292 292 293 294 294 291 290 290 289 287 283
233 236 240 244 247 251 251 254 270 262 279 264 279 261 256 258 263 267 271 277 286 288 288 290 288 285 285 284 284 287 291 291 291 291 290 289 290 289 285 287 284 284 282
228 232 236 238 242 243 241 247 271 299 296 286 287 248 239 254 265 274 278 280 282 282 285 284 286 286 285 286 286 285 286 287 287 288 289 289 287 283 282 281 280 282 280
230 232 237 241 245 232 240 273 284 291 303 301 236 227 241 244 255 272 281 284 284 283 282 283 285 286 286 284 283 283 285 287 288 290 290 289 287 286 283 282 282 280 279
229 234 238 245 257 273 280 244 290 292 291 293 266 252 254 250 264 276 280 280 282 285 285 285 286 287 286 285 284 285 287 289 291 291 289 288 288 287 287 285 284 282 282
227 234 239 241 253 261 274 280 289 281 283 258 261 268 262 264 277 280 280 283 284 285 283 282 282 282 284 285 286 286 287 288 288 288 287 287 287 287 285 286 285 285 284
228 234 240 246 252 260 269 274 278 278 274 270 274 280 273 272 278 284 284 285 283 282 285 284 282 284 286 286 287 287 287 287 286 287 286 286 285 285 287 286 284 283 284
229 235 242 248 254 259 262 268 275 275 272 269 275 281 272 273 283 284 284 287 287 287 284 283 283 283 284 285 287 287 285 285 286 286 286 288 288 288 288 287 285 284 281
228 234 239 244 249 257 263 265 268 268 269 274 279 267 271 281 286 283 284 285 284 283 282 283 285 287 287 287 287 287 287 288 288 290 291 290 289 287 286 285 285 285 285
230 235 239 243 247 252 257 260 262 270 264 271 262 268 282 283 281 283 284 285 284 283 284 287 288 289 289 290 290 290 290 291 291 291 289 288 288 287 285 284 283 281 280
228 233 239 243 247 253 258 261 256 258 257 264 275 282 282 283 284 284 283 283 283 285 286 290 291 291 293 292 291 292 292 290 289 288 286 285 285 284 283 283 282 281 280